Regional Weather Roundup
Issued by NWS State College, PA

Home | Current Version | Previous Version | Graphics & Text | Print | Product List | Glossary On
Versions: 1 2 3 4 5 6 7 8 9 10 11 12 13 14 15 16 17 18 19 20 21 22 23 24 25 26 27 28 29 30 31 32 33 34 35 36 37 38 39 40 41 42 43 44 45 46 47 48 49 50
000
ASUS41 KCTP 290303
RWRCTP

REGIONAL WEATHER ROUNDUP
NATIONAL WEATHER SERVICE STATE COLLEGE PA
1100 PM EDT THU MAY 28 2015

Note: "fair" indicates few or no clouds below 12,000 feet with no
significant weather and/or obstructions to visibility.

* = STATION THAT DOES NOT REPORT PRECIPITATION /E.G. RAIN...SNOW...ETC/
    THUNDER OR FOG.

PAZ002>004-007>009-013>016-020>023-029>032-290400-
WESTERN PENNSYLVANIA

CITY           SKY/WX    TMP DP  RH WIND       PRES   REMARKS
ERIE           CLEAR     64  52  64 CALM      30.26R
MEADVILLE      LGT RAIN  63  55  75 NE3       30.28R
FRANKLIN*      CLEAR     61  54  77 CALM      30.29R
NEW CASTLE     FAIR      62  58  87 CALM      30.27R
BEAVER COUNTY  NOT AVBL
BUTLER*        CLEAR     63  54  72 CALM      30.29R
PITTSBURGH INT CLEAR     71  52  50 NE3       30.26R
PITTSBURGH     CLEAR     71  48  43 E5        30.26R
INDIANA*       CLEAR     61  55  82 CALM      30.31R
LATROBE        NOT AVBL
WASHINGTON CO* CLEAR     61  57  88 CALM      30.28R
$$

PAZ004>006-010>012-017>019-024>028-033>037-041-042-045-046-049>053-290400-
CENTRAL PENNSYLVANIA

CITY           SKY/WX    TMP DP  RH WIND       PRES   REMARKS
BRADFORD       FAIR      56  51  84 CALM      30.32R
DUBOIS         CLEAR     66  51  58 CALM      30.29R
CLEARFIELD     CLEAR     60  52  74 N5        30.29R
JOHNSTOWN      CLEAR     65  50  58 E3        30.30R
ALTOONA        CLEAR     67  51  56 CALM      30.29R
STATE COLLEGE  PTCLDY    67  53  59 CALM      30.28R
WILLIAMSPORT   CLEAR     64  56  75 CALM      30.26R
SELINSGROVE    CLEAR     63  56  78 NW5       30.26R
FT INDIANTOWN  CLEAR     71  54  54 NE7       30.24R
CAPITAL CITY   PTCLDY    76  54  46 N5        30.24R
HARRISBURG     PTCLDY    74  55  51 N3        30.22R
YORK           PTCLDY    65  62  90 CALM      30.23R
$$

PAZ038>040-043-044-047-048-054-055-060>062-067>071-290400-
EASTERN PENNSYLVANIA

CITY           SKY/WX    TMP DP  RH WIND       PRES   REMARKS
SCRANTON       CLEAR     67  53  61 NE5       30.28S
MOUNT POCONO   CLEAR     56  32  40 NW3       30.30S
ALLENTOWN      PTCLDY    69  51  52 N5        30.25R
QUAKERTOWN*    PTCLDY    72  52  49 N5        30.25R
READING        PTCLDY    74  52  46 N6        30.23R
LANCASTER      CLEAR     71  57  61 NE5       30.23R
COATESVILLE    PTCLDY    73  57  56 N3        30.25R
POTTSTOWN      PTCLDY    72  53  51 NE6       30.24R
BLUE BELL      MOCLDY    72  55  56 CALM      30.22R
DOYLESTOWN     PTCLDY    71  50  47 NE5       30.23R
WILLOW GROVE   NOT AVBL
NORTH PHILA    MOCLDY    77  51  40 N5        30.24R
PHILADELPHIA   MOCLDY    78  65  63 E10       30.22R
$$


USA.gov is the U.S. government's official web portal to all federal, state and local government web resources and services.